sat.trackr.live / text

‹ back to catalog

STARLINK-32036

NORAD 60141 · 2024-120G

PAYLOAD ACTIVE UNKNOWN

§ Identity

Operator
Country
US
Launch date
2024-06-27
Launch site
AFETR
Launch vehicle
Mass (kg)
RCS (m²)

Purposes: comms

External: N2YO · Heavens-Above · Gunter

§ Orbital elements

Epoch: 2026-09-21T20:27:29.033568Z

Period
93.85 min
Inclination
53.1607°
Eccentricity
0.0001391
Mean motion
15.34389815 rev/d
Perigee alt
461.8 km
Apogee alt
463.7 km
Semi-major
6,840.9 km
B*
1.0606e-5
RAAN
125.6428°
Arg perigee
88.7456°
Mean anomaly
271.3706°
Rev number
12,653

§ Raw data

STARLINK-320361 60141U 24120G   26264.85241937 -.00000018  00000+0  10606-4 0  99962 60141  53.1607 125.6428 0001391  88.7456 271.3706 15.34389815126536

JSON: /api/v1/satellites/60141 · /tle

For live sub-satellite position, see the globe view (requires WebGL).

§ Visibility from observer

Set your observer location to see the next 7 days of passes ≥ 10°. The values pass through the URL so the page stays shareable.

No JS? Fill the form by hand. The geolocation button needs JavaScript.